Location: Czekanka
(50.4925°N, 19.2643°E)
Time: 13:35:16
(UTC+00:00)

Cosmos 1821 Rocket - Pass Details

Date: 15 June 2024
Orbit: 945 x 1003 km, 82.9° (Epoch: 15 July)

Event Time Altitude Azimuth Distance (km) Brightness Sun altitude
Exits shadow 01:01:26 10° 189° (S) 2,657 5.7 -10.1°
Maximum altitude 01:07:31 86° 280° (W) 961 4.0 -9.6°
Drops below altitude 10° 01:13:43 10° 9° (N) 2,705 7.5 -9.1°
Sets 01:16:14 0° 10° (N) 3,663 8.4 -8.8°
